Forside
METAR-TAF:

METAR-TAF

Lufthavne :

Clinton Municipal Airport

Clinton, Iowa, USA

Breddekreds: 41-50N, længdekreds: 090-20W, højde: 216 m

Aktuelle vejr

Denne rapport blev lavet for 44 minutter siden, kl. 11:56 UTC
Vind 7 kt fra østnordøst
Temperatur 15°C
Fugtighed 100%
Tryk 1019 hPa
Sigt: 16.1 km
skyfri

METAR: KCWI 121156Z AUTO 07007KT 10SM CLR 15/15 A3010 RMK AO2 SLP194 T01500150 10156 20133 50010

Tid: 07:40 (12:40 UTC)


TAF: fraværende

Vejrobservationer og prognoser fra mere end 4000 lufthavne (METAR og TAF).

De gule og røde prikker repræsenterer de meteorologiske stationer.

Flyt musen over at se navnet på stationen.

Så klik over at se vejr observationer og prognoser.

At skifte det kort: Klik på de grønne knapper med et sort kors for at zoome ind; på den grønne knap med en bindestreg for at zoome ud; eller på de grønne pile for tilstødende kort.


METAR-TAF: